Flag for France Weather past 2 weeks in Marigot, Saint Martin, France

Now
82 °F

Passing clouds.


Feels Like: 88 °F
Forecast: 81 / 87 °F
Wind: 12 mph from East

Location: Juliana Airport - Saint Maarten

Current Time: Jul 25, 2014 at 12:48:22 AM

Latest Report: Jul 25, 2014 at 12:00 AM


Visibility: N/A

Pressure: 30.07 "Hg

Humidity: 74%

Dew point: 73 °F

Location of MarigotLocation

Historic Weather in Marigot — Graph

°F

Marigot temperature yesterday

Maximum temperature yesterday: 88 °F (at 2:00 PM)
Minimum temperature yesterday: 82 °F (at 12:00 AM)
Average temperature yesterday: 84 °F

Past Weeks' High & Low Weather Summary

 TemperatureHumidityPressure
High88 °F (Jul 20, 2:00 PM)89% (Jul 15, 1:00 AM)30.12 "Hg (Jul 15, 1:00 AM)
Low77 °F (Jul 15, 1:00 AM)59% (Jul 12, 12:00 PM)30.01 "Hg (Jul 24, 4:00 AM)
Average83 °F72%30.07 "Hg
* Reported Midnight between Jul 9 and Jul 10 — Midnight between Jul 24 and Jul 25, Marigot, Weather by CustomWeather, © 2014

Note: Actual official high and low records may vary slightly from our data, if they occured in-between our weather recording intervals... More about our weather records

Advertising

Marigot weather history for previous 24 hours

 ConditionsComfort  
Time TempWeatherWind HumidityBarometerVisibility
12:00 AM
Jul 25
82 °FPassing clouds.12 mph74%30.07 "HgN/A
11:00 PM
Jul 24
82 °FPassing clouds.17 mph74%30.09 "HgN/A
10:00 PM82 °FPassing clouds.16 mph74%30.09 "HgN/A
9:00 PM82 °FPassing clouds.15 mph74%30.07 "HgN/A
8:00 PM82 °FPassing clouds.15 mph74%30.07 "HgN/A
7:00 PM82 °FPassing clouds.13 mph70%30.04 "HgN/A
6:00 PM84 °FPassing clouds.15 mph66%30.01 "HgN/A
5:00 PM84 °FPassing clouds.16 mph66%30.01 "HgN/A
4:00 PM86 °FScattered clouds.14 mph62%30.01 "HgN/A
3:00 PM86 °FScattered clouds.15 mph66%30.01 "HgN/A
2:00 PM88 °FScattered clouds.16 mph59%30.04 "HgN/A
1:00 PM86 °FScattered clouds.18 mph62%30.04 "HgN/A
12:00 PM86 °FScattered clouds.21 mph62%30.07 "HgN/A
11:00 AM86 °FPassing clouds.18 mph62%30.07 "HgN/A
10:00 AM86 °FScattered clouds.17 mph59%30.07 "HgN/A
9:00 AM86 °FScattered clouds.14 mph62%30.07 "HgN/A
8:00 AM84 °FPassing clouds.12 mph66%30.04 "HgN/A
7:00 AM82 °FPassing clouds.12 mph70%30.04 "HgN/A
6:00 AM82 °FPassing clouds.10 mph70%30.04 "HgN/A
5:00 AM82 °FPassing clouds.13 mph70%30.01 "HgN/A
4:00 AM82 °FPassing clouds.13 mph70%30.01 "HgN/A
3:00 AM82 °FPassing clouds.13 mph70%30.04 "HgN/A
2:00 AM82 °FPassing clouds.9 mph70%30.04 "HgN/A
1:00 AM82 °FPassing clouds.12 mph74%30.04 "HgN/A
12:00 AM82 °FPassing clouds.12 mph74%30.07 "HgN/A
Weather by CustomWeather, © 2014

See weather overviewHow to use our weather pages